WORLDVIEW 2 DEB, 41742

Orbit data source: Space-Track

WORLDVIEW 2 DEB, 41742 is space debris in SSO originally from a launch on Thu, 08 Oct 2009 UTC launched from the Air Force Western Test Range (AFWTR). Debris objects in space refer to the collection of defunct objects orbiting the Earth. Examples of debris include non-operational satellites, rocket bodies, and fragments generated from explosions, collisions, or faulty payload assembly.

Loading next visibility...
Identifier
41742, 2009-055K
Orbit
SSO
Last TLE update
4 hours ago
Origin
Manufacturer
Ball
Mission
Spacecraft
Bus & Motor
Unknown
Mass
Unknown
Launch date (UTC)
2009-10-08 (16 years ago)
Launch vehicle
Unknown
Launch site
Air Force Western Test Range (AFWTR)
Object type
Payload
Rocket body
Debris
Shape & HBR
Unknown
Radar Cross Section
Small (<0.1 m²)

Expand to show TLE details & history

TLE from 4 hours ago
0 WORLDVIEW 2 DEB
1 41742U 09055K   25182.23332104  .00002835  00000-0  66993-3 0  9997
2 41742  98.3618 270.5609 0008379 197.6950 162.3956 14.54914760471014
Epoch: 2025-07-01T05:35Z
TLE epoch observation values (Epoch: 2025-07-01T05:35:58.937Z)
Latitude
-0.00006°
Longitude
-92.96638°
Altitude
718.277 km
Speed
7.493 km/s
True Right ascension
18h 02m 14s
True Declination
0° 00' 00"
Sunlit
Object was in full shadow at epoch
Visualization orbit readout
Latitude
29.21896°
Longitude
91.89023°
Altitude
709.234 km
Speed
7.506 km/s
Apparent Right ascension
07h 37m 11s
Apparent Declination
-3° 29' 18"
Sunlit
Object is in daylight
Visualization observer readout
Local Sidereal Time
21:13:45
Azimuth
37.197° NE
Elevation
-47.533°
Doppler factor
1
Orbital elements
Apogee altitude
712.673 km
Perigee altitude
700.801 km
Semi-major axis
7,084.874 km
Eccentricity
0.00084
Inclination
98.3618°
RAAN
270.5609°
Arg. of periapsis
197.695°
True anomaly
Unknown
Mean anomaly
162.3956°
Eccentric anomaly
Unknown
Mean motion
3.63953 °/min
Orbital period
98.91 mins
BSTAR
0.00066993
Loading maneuver chart data...
Loading SW <> Apogee altitude chart data...

WORLDVIEW 2 DEB Visibility forecast

Observer location: undefined°, undefined°

Span
Click to sort rows by Start time (UTC) header in descending order
Start Az.
Max El. time (UTC)
Max El. Az.
Max El.
End time (UTC)
End Az.
6 mins2025-07-01 17:45:26.411Z54.33° ENE2025-07-01 17:48:26.411Z99.063° ESE18.558°2025-07-01 17:51:26.411Z139.266° SSE
7 mins2025-07-01 19:23:26.411Z347.125° N2025-07-01 19:26:26.411Z279.044° WNW32.968°2025-07-01 19:30:26.411Z220.667° SW
5 mins2025-07-02 04:52:26.411Z101.174° ESE2025-07-02 04:54:26.411Z69.147° E20.767°2025-07-02 04:57:26.411Z23.372° NE
7 mins2025-07-02 06:29:26.411Z204.768° SW2025-07-02 06:32:26.411Z268.524° W31.738°2025-07-02 06:36:26.411Z329.236° NNW
|